   P04 - Terminal da Parangaba - Rua Eduardo Perdig�o, n� 169, Bairro Parangaba;;;;;;;;;;;;;;;
M�S  ;�xidos de Enxofre;�xido N�trico;Di�xido de Nitrog�nio;�xidos de Nitrog�nio;Oz�nio;Material Particulado <10�m;Material Particulado <2,5�m;Mon�xido de carbono;;;;;;;
out/22;SO2;NO;NO2;NOx;O3;MP10;MP2,5;CO (ppm);VelVento;DirVento;T-PM10;UR-meteo;Press;RadSol;Chuva
01/10/2022 00:00;7,66;11,30;22,84;40,17;48,90;29;14;0,49;2,69;121,26;26,80;78,20;1010,00;0,00;0,00
01/10/2022 01:00;4,94;2,81;11,75;16,05;60,38;34;11;0,39;2,87;128,91;26,70;79,30;1009,20;0,00;0,00
01/10/2022 02:00;4,18;1,24;6,82;8,72;64,42;36;15;0,38;2,70;136,34;26,50;81,40;1008,40;0,00;0,00
01/10/2022 03:00;4,39;1,31;5,28;7,29;66,65;31;15;0,36;2,89;139,60;26,50;80,20;1008,30;0,00;0,00
01/10/2022 04:00;4,29;1,30;5,30;7,29;63,97;33;17;0,39;2,55;145,80;26,20;82,60;1008,70;0,00;0,00
01/10/2022 05:00;4,39;2,59;8,53;12,50;61,63;33;14;0,36;3,68;158,30;25,70;82,50;1009,00;0,00;0,00
01/10/2022 06:00;3,66;19,42;23,18;52,94;41,43;33;17;0,51;2,63;164,73;25,70;82,40;1009,60;13,00;0,00
01/10/2022 07:00;4,89;31,04;26,68;74,24;34,58;40;15;0,64;2,57;174,83;25,70;82,60;1010,10;94,00;0,00
01/10/2022 08:00;4,92;29,33;25,89;70,87;41,15;38;17;0,63;3,43;159,45;27,10;72,80;1010,40;371,00;0,00
01/10/2022 09:00;4,55;20,35;25,96;57,17;51,32;44;16;0,54;4,41;151,59;27,80;65,40;1010,90;387,00;0,00
01/10/2022 10:00;3,74;16,45;20,13;45,36;60,02;36;19;0,46;5,32;145,51;29,00;53,20;1010,80;728,00;0,00
01/10/2022 11:00;4,34;18,18;22,56;50,46;58,89;43;14;0,41;5,07;118,75;29,40;51,40;1010,30;931,00;0,00
01/10/2022 12:00;4,81;16,92;20,64;46,60;57,96;37;11;0,42;4,77;117,55;29,90;48,60;1009,60;928,00;0,00
01/10/2022 13:00;5,15;18,17;21,73;49,59;54,96;26;14;0,40;5,02;118,68;30,20;48,10;1008,90;937,00;0,00
01/10/2022 14:00;4,45;18,07;21,83;49,53;56,73;25;10;0,40;4,86;109,80;30,10;49,70;1008,00;813,00;0,00
01/10/2022 15:00;4,60;18,77;22,50;51,28;55,14;32;11;0,43;4,67;102,96;29,60;57,30;1008,00;328,00;0,00
01/10/2022 16:00;4,84;18,32;21,49;49,57;53,22;30;13;0,44;4,33;102,49;29,10;63,40;1008,10;63,00;0,00
01/10/2022 17:00;4,86;18,79;24,29;53,11;45,57;33;12;0,49;3,69;108,09;28,30;71,20;1008,40;38,00;0,00
01/10/2022 18:00;5,81;27,13;29,87;71,47;37,88;36;16;0,53;3,24;112,04;27,70;76,60;1008,60;6,00;0,00
01/10/2022 19:00;5,70;24,67;28,33;66,13;34,35;35;12;0,55;2,95;112,49;27,40;77,60;1009,20;0,00;0,00
01/10/2022 20:00;5,83;24,05;29,25;66,13;36,74;32;18;0,53;3,04;115,56;27,30;76,20;1010,20;0,00;0,00
01/10/2022 21:00;5,94;28,70;30,83;74,84;31,90;35;19;0,52;2,68;113,75;27,20;77,30;1010,80;0,00;0,00
01/10/2022 22:00;6,12;18,70;29,16;57,82;34,31;38;15;0,51;2,38;115,10;27,10;77,10;1011,20;0,00;0,00
01/10/2022 23:00;6,25;13,01;21,00;40,94;41,90;40;12;0,47;2,87;117,09;27,10;76,40;1011,10;0,00;0,00
02/10/2022 00:00;6,07;9,05;15,96;29,83;46,59;29;15;0,42;3,11;115,33;27,00;79,00;1010,70;0,00;0,00
02/10/2022 01:00;5,73;6,35;12,80;22,54;53,24;31;13;0,40;3,15;118,14;26,90;80,10;1010,10;0,00;0,00
02/10/2022 02:00;5,00;0,94;5,58;7,03;61,36;31;14;0,38;3,08;117,21;26,70;78,40;1009,70;0,00;0,00
02/10/2022 03:00;4,97;1,21;4,30;6,17;62,75;27;13;0,36;3,04;123,82;26,60;79,10;1009,30;0,00;0,00
02/10/2022 04:00;5,31;1,16;4,21;6,00;58,61;31;10;0,38;2,72;133,24;25,80;87,00;1009,30;0,00;0,00
02/10/2022 05:00;5,07;2,94;6,64;11,13;54,10;27;16;0,39;2,91;145,41;25,30;89,90;1009,80;0,00;1,10
02/10/2022 06:00;4,60;11,07;18,20;35,17;42,78;20;9;0,44;2,75;144,55;24,80;91,30;1010,30;17,00;0,00
02/10/2022 07:00;4,47;10,53;12,80;28,93;45,23;31;10;0,47;3,51;167,92;25,60;84,00;1010,90;166,00;0,00
02/10/2022 08:00;5,65;15,09;14,93;38,07;43,74;35;13;0,46;3,63;171,06;26,70;75,40;1011,40;410,00;0,00
02/10/2022 09:00;5,23;18,01;19,40;47,02;49,49;28;13;0,45;4,48;152,34;27,50;67,60;1011,40;493,00;0,00
02/10/2022 10:00;5,68;17,08;18,89;45,06;54,59;30;10;0,47;4,53;146,74;28,70;59,10;1010,90;715,00;0,00
02/10/2022 11:00;5,60;24,14;25,10;62,09;56,71;33;13;0,44;4,39;126,10;29,70;51,00;1010,10;968,00;0,00
02/10/2022 12:00;4,60;19,87;22,37;52,82;59,85;35;13;0,43;4,71;123,39;30,00;48,30;1009,60;939,00;0,00
02/10/2022 13:00;4,37;18,35;20,89;49,01;58,55;30;15;0,44;4,81;127,31;29,90;49,90;1008,70;951,00;0,00
02/10/2022 14:00;4,89;17,99;24,27;51,83;60,04;32;15;0,42;5,33;115,95;29,50;50,40;1007,60;802,00;0,00
02/10/2022 15:00;5,34;17,30;22,92;49,44;56,94;32;13;0,41;4,95;108,67;29,30;54,50;1007,40;282,00;0,00
02/10/2022 16:00;5,07;21,85;24,36;57,84;57,75;30;13;0,43;4,52;106,89;29,40;53,70;1007,30;74,00;0,00
02/10/2022 17:00;4,68;23,87;27,92;64,52;53,81;33;16;0,41;4,38;111,26;28,60;58,10;1007,80;36,00;0,00
02/10/2022 18:00;5,23;26,76;34,50;75,51;45,25;37;17;0,46;3,58;113,43;27,80;67,10;1008,40;3,00;0,00
02/10/2022 19:00;5,70;19,26;28,72;58,26;42,82;40;17;0,47;2,85;114,04;27,30;73,30;1009,50;0,00;0,00
02/10/2022 20:00;5,52;19,13;30,75;60,08;44,82;37;12;0,46;2,71;115,87;27,10;74,30;1010,20;0,00;0,00
02/10/2022 21:00;5,86;14,80;28,42;51,13;44,10;31;15;0,43;2,61;114,46;26,90;76,80;1010,70;0,00;0,00
02/10/2022 22:00;6,41;18,21;30,00;57,90;44,96;36;13;0,43;2,52;112,43;26,80;77,80;1011,10;0,00;0,00
02/10/2022 23:00;6,72;12,39;25,87;44,87;49,51;32;15;0,41;3,08;111,90;26,80;77,90;1011,40;0,00;0,00
03/10/2022 00:00;6,93;14,37;20,87;42,90;52,51;38;17;0,38;2,74;120,74;26,70;75,80;1011,00;0,00;0,00
03/10/2022 01:00;5,96;2,61;10,72;14,72;64,93;35;14;0,35;2,40;121,25;26,50;74,00;1010,40;0,00;0,00
03/10/2022 02:00;5,31;1,12;6,32;8,03;69,26;32;15;0,34;2,22;129,91;26,30;74,20;1009,90;0,00;0,00
03/10/2022 03:00;5,91;0,56;4,53;5,40;69,26;32;12;0,34;2,54;138,93;26,00;76,30;1010,00;0,00;0,00
03/10/2022 04:00;6,67;0,92;5,58;6,99;69,17;30;9;0,36;2,29;135,92;25,90;76,70;1009,90;0,00;0,00
03/10/2022 05:00;7,06;5,37;13,22;21,45;64,97;35;12;0,37;2,32;137,59;25,90;77,20;1010,20;0,00;0,00
03/10/2022 06:00;6,77;43,73;41,81;108,88;31,17;38;18;0,48;2,11;147,93;25,80;78,60;1011,20;7,00;0,00
03/10/2022 07:00;7,53;73,42;42,39;154,99;19,28;26;21;0,93;2,13;164,69;24,60;92,10;1011,70;53,00;0,00
03/10/2022 08:00;6,56;53,87;32,99;115,59;30,09;53;10;0,89;2,85;168,34;26,40;80,40;1011,60;400,00;0,00
03/10/2022 09:00;6,25;26,19;28,55;68,71;50,43;39;13;0,56;4,05;158,45;28,10;66,20;1012,20;633,00;0,00
03/10/2022 10:00;5,13;25,93;31,49;71,25;51,59;41;15;0,51;3,33;147,99;29,20;59,80;1012,20;644,00;0,00
03/10/2022 11:00;5,52;21,59;26,77;59,87;57,79;36;10;0,42;4,05;122,70;29,60;55,00;1010,90;912,00;0,00
03/10/2022 12:00;5,02;20,17;28,31;59,25;63,12;30;10;0,40;4,52;118,14;30,10;44,50;1009,90;922,00;0,00
03/10/2022 13:00;5,02;20,41;26,84;58,16;62,57;32;9;0,39;4,59;114,50;29,90;46,80;1008,60;940,00;0,00
03/10/2022 14:00;4,45;18,02;25,57;53,20;64,14;29;14;0,41;4,81;105,39;29,80;46,90;1007,50;818,00;0,00
03/10/2022 15:00;6,02;23,43;28,03;63,97;59,57;31;13;0,42;4,67;107,98;29,40;52,60;1007,40;303,00;0,00
03/10/2022 16:00;6,02;20,20;26,22;57,20;56,34;36;12;0,44;4,13;104,38;29,00;56,90;1007,60;79,00;0,00
03/10/2022 17:00;6,41;41,36;34,63;98,05;44,17;46;17;0,49;3,74;104,85;28,30;62,70;1007,80;37,00;0,00
03/10/2022 18:00;7,06;56,84;47,50;134,65;34,41;52;14;0,59;3,00;102,50;27,70;67,40;1008,10;3,00;0,00
03/10/2022 19:00;7,53;65,77;46,98;147,72;30,21;38;15;0,63;2,61;102,97;27,30;69,80;1008,70;0,00;0,00
03/10/2022 20:00;6,88;78,99;51,49;172,63;23,21;43;14;0,64;2,03;107,20;27,30;69,80;1009,40;0,00;0,00
03/10/2022 21:00;8,11;63,57;50,46;147,93;20,17;40;13;0,60;1,81;109,31;27,00;72,50;1009,90;0,00;0,00
03/10/2022 22:00;7,09;39,31;47,03;107,11;25,01;38;11;0,60;1,84;117,19;26,80;73,80;1010,40;0,00;0,00
03/10/2022 23:00;7,61;26,57;43,52;84,26;25,25;37;17;0,58;1,68;122,49;26,60;75,10;1010,80;0,00;0,00
04/10/2022 00:00;7,19;15,80;31,47;55,70;35,45;38;11;0,46;1,83;116,13;26,30;78,30;1010,50;0,00;0,00
04/10/2022 01:00;8,11;4,01;15,11;21,26;48,29;36;14;0,40;1,76;125,48;26,10;81,60;1009,50;0,00;0,00
04/10/2022 02:00;7,79;1,42;7,73;9,93;59,95;29;15;0,36;2,32;119,80;26,20;80,00;1009,50;0,00;0,00
04/10/2022 03:00;7,74;1,10;5,92;7,61;60,34;33;14;0,36;2,01;124,76;26,00;81,90;1008,70;0,00;0,00
04/10/2022 04:00;7,35;1,15;5,24;7,01;60,55;31;11;0,36;2,21;131,15;25,90;82,20;1008,80;0,00;0,00
04/10/2022 05:00;6,46;5,79;11,71;20,58;55,00;31;15;0,39;2,44;135,15;25,90;81,90;1009,10;0,00;0,00
04/10/2022 06:00;9,21;37,14;35,15;92,11;32,95;39;19;0,49;2,49;139,34;26,10;81,10;1009,80;20,00;0,00
04/10/2022 07:00;9,13;89,34;46,19;183,17;23,81;49;16;0,79;2,54;142,80;27,00;76,10;1010,50;148,00;0,00
04/10/2022 08:00;9,91;52,45;37,35;117,74;27,34;53;21;0,85;2,89;162,06;27,10;76,40;1011,00;189,00;0,00
04/10/2022 09:00;9,76;37,94;33,78;91,96;30,82;44;20;0,72;2,95;145,15;26,90;80,30;1011,60;415,00;0,00
04/10/2022 10:00;9,36;30,21;29,81;76,13;47,59;38;14;0,52;3,87;127,96;28,80;64,20;1010,90;844,00;0,00
04/10/2022 11:00;5,36;27,19;26,41;68,11;53,57;39;13;0,45;3,87;116,04;29,60;56,10;1010,30;990,00;0,00
04/10/2022 12:00;4,63;21,33;24,70;57,41;54,45;39;9;0,44;3,62;120,17;30,10;52,20;1009,60;949,00;0,00
04/10/2022 13:00;4,71;23,62;25,02;61,23;53,18;34;16;0,44;3,86;113,44;30,00;52,80;1008,70;944,00;0,00
04/10/2022 14:00;5,96;22,23;24,81;58,90;54,83;32;13;0,43;4,35;111,83;29,70;54,10;1007,80;809,00;0,00
04/10/2022 15:00;6,77;22,73;28,78;63,67;53,87;32;14;0,46;4,05;119,71;29,60;54,40;1007,40;290,00;0,00
04/10/2022 16:00;7,27;28,49;31,81;75,49;50,81;34;14;0,45;3,57;98,86;29,30;56,70;1007,50;78,00;0,00
04/10/2022 17:00;6,93;36,42;35,19;91,04;41,94;44;13;0,52;3,34;97,09;28,50;64,00;1007,80;35,00;0,00
04/10/2022 18:00;7,61;47,79;44,82;118,07;33,50;47;16;0,61;2,82;100,25;27,70;71,30;1008,20;3,00;0,00
04/10/2022 19:00;7,58;66,74;45,81;148,17;24,19;43;17;0,68;2,52;104,55;27,30;74,50;1008,60;0,00;0,00
04/10/2022 20:00;7,69;65,85;49,36;150,31;23,54;43;12;0,64;2,57;106,08;27,20;73,60;1009,20;0,00;0,00
04/10/2022 21:00;7,43;33,97;37,13;89,12;32,58;38;16;0,53;2,65;101,45;26,90;76,80;1009,90;0,00;0,00
04/10/2022 22:00;7,43;25,28;33,95;72,73;36,96;36;17;0,51;2,61;102,49;26,70;78,70;1010,00;0,00;0,00
04/10/2022 23:00;7,32;16,40;32,77;57,90;37,45;36;15;0,53;2,26;103,72;26,60;79,70;1010,10;0,00;0,00
05/10/2022 00:00;8,13;11,14;26,41;43,52;42,96;38;17;0,47;2,07;112,45;26,30;80,30;1009,30;0,00;0,00
05/10/2022 01:00;5,36;4,07;14,25;20,49;56,81;34;13;0,37;2,17;123,70;26,20;80,40;1008,80;0,00;0,00
05/10/2022 02:00;3,43;1,09;6,99;8,67;63,34;31;12;0,36;2,36;132,05;26,00;81,30;1008,40;0,00;0,00
05/10/2022 03:00;3,71;1,14;4,89;6,64;66,91;29;14;0,35;2,63;129,05;26,10;79,90;1008,20;0,00;0,00
05/10/2022 04:00;3,87;0,64;4,30;5,26;67,13;28;11;0,35;2,31;125,63;26,10;79,70;1008,10;0,00;0,00
05/10/2022 05:00;3,58;5,63;11,07;19,70;64,50;35;16;0,37;2,96;133,22;26,10;79,80;1008,30;0,00;0,00
05/10/2022 06:00;4,50;35,82;35,36;90,29;38,90;38;18;0,48;2,97;144,16;26,00;78,80;1009,10;16,00;0,00
05/10/2022 07:00;4,81;60,28;43,69;136,10;34,70;44;14;0,67;3,56;143,82;26,90;74,80;1009,80;166,00;0,00
05/10/2022 08:00;3,43;42,00;35,23;99,46;44,74;47;17;0,61;3,97;137,30;27,90;68,20;1010,10;377,00;0,00
05/10/2022 09:00;3,90;37,87;36,53;94,61;51,41;51;17;0,52;4,39;133,52;28,80;60,60;1010,20;665,00;0,00
05/10/2022 10:00;3,43;24,99;26,58;64,89;58,61;46;12;0,46;4,19;126,53;29,30;58,20;1009,90;831,00;0,00
05/10/2022 11:00;3,66;20,47;25,79;57,19;61,99;42;13;0,44;4,59;121,03;29,80;54,60;1009,30;992,00;0,00
05/10/2022 12:00;4,26;18,71;24,61;53,29;63,14;38;12;0,44;4,74;120,72;30,00;55,10;1009,10;821,00;0,00
05/10/2022 13:00;3,61;29,85;28,33;74,12;56,26;35;9;0,46;4,68;123,31;30,00;56,30;1008,40;871,00;0,00
05/10/2022 14:00;4,18;25,56;26,11;65,63;54,10;38;10;0,44;4,32;122,67;29,60;60,90;1007,80;575,00;0,00
05/10/2022 15:00;4,21;17,90;23,05;50,49;52,90;37;11;0,45;4,97;107,48;29,30;64,50;1007,10;267,00;0,00
05/10/2022 16:00;4,16;18,37;22,93;51,08;55,87;38;12;0,45;5,03;100,29;29,00;66,60;1006,90;90,00;0,00
05/10/2022 17:00;3,87;27,00;29,23;70,63;47,37;41;13;0,49;4,14;101,83;28,30;72,30;1007,40;38,00;0,00
05/10/2022 18:00;4,63;28,93;39,14;83,60;44,82;47;16;0,55;3,38;102,47;27,70;77,10;1008,00;4,00;0,00
05/10/2022 19:00;4,37;49,21;40,29;115,74;32,70;54;18;0,59;3,28;103,17;27,60;78,80;1008,50;0,00;0,00
05/10/2022 20:00;4,18;47,85;41,75;115,12;32,23;43;22;0,56;2,91;102,01;27,40;80,70;1009,10;0,00;0,00
05/10/2022 21:00;3,71;41,92;35,34;99,56;32,80;39;17;0,52;2,94;101,46;27,20;80,80;1009,80;0,00;0,00
05/10/2022 22:00;4,03;24,27;31,98;69,20;37,29;38;17;0,51;3,18;102,53;27,20;79,40;1009,90;0,00;0,00
05/10/2022 23:00;4,03;13,29;22,97;43,35;43,45;30;13;0,47;3,41;103,61;27,00;80,50;1009,80;0,00;0,00
06/10/2022 00:00;3,87;6,64;15,34;25,55;50,12;31;10;0,43;3,56;106,15;26,80;81,40;1009,40;0,00;0,00
06/10/2022 01:00;4,66;2,71;9,70;13,87;55,26;34;7;0,37;3,40;107,07;26,70;81,70;1009,00;0,00;0,00
06/10/2022 02:00;5,91;0,99;6,73;8,25;61,24;30;10;0,35;3,45;111,22;26,60;80,60;1008,70;0,00;0,00
06/10/2022 03:00;6,46;0,81;4,87;6,11;60,91;28;12;0,33;2,78;117,68;26,50;79,00;1008,50;0,00;0,00
06/10/2022 04:00;6,56;1,10;6,94;8,63;58,53;25;11;0,32;3,18;113,81;26,30;78,10;1008,60;0,00;0,00
06/10/2022 05:00;7,58;4,63;11,99;19,10;52,43;31;8;0,32;2,60;129,05;26,10;76,80;1008,90;0,00;0,00
06/10/2022 06:00;8,32;51,21;36,64;115,14;26,50;35;15;0,43;2,47;135,23;26,20;79,70;1009,50;14,00;0,00
06/10/2022 07:00;7,85;72,09;37,69;148,26;25,19;40;10;0,49;3,57;127,63;27,00;74,80;1009,90;167,00;0,00
06/10/2022 08:00;6,62;51,92;33,54;113,15;29,66;41;15;0,52;3,61;125,26;28,10;68,30;1010,40;412,00;0,00
06/10/2022 09:00;6,75;36,35;24,40;80,14;37,82;37;11;0,47;4,01;125,76;29,10;62,00;1010,60;629,00;0,00
06/10/2022 10:00;6,85;29,15;24,63;69,35;41,61;40;9;0,45;4,08;120,61;30,00;58,50;1010,80;543,00;0,00
06/10/2022 11:00;6,56;23,43;22,39;58,29;47,14;38;12;0,44;7,35;71,11;31,80;53,70;1011,20;0,00;0,00
06/10/2022 12:00;6,77;27,85;23,03;65,76;42,61;40;9;0,45;14,95;56,60;32,40;48,40;1010,00;0,00;0,00
06/10/2022 13:00;7,51;24,20;20,58;57,69;43,78;30;11;0,41;16,69;57,10;32,90;47,60;1009,40;0,00;4,50
06/10/2022 14:00;7,38;24,73;21,02;58,93;40,41;36;9;0,42;18,92;50,02;32,20;48,50;1008,60;0,00;0,00
06/10/2022 15:00;7,66;25,26;21,07;59,78;37,29;29;7;0,45;15,67;53,25;30,80;56,10;1007,60;176,00;0,00
06/10/2022 16:00;8,42;32,21;22,69;72,04;33,29;32;13;0,44;3,61;119,81;29,60;60,00;1007,40;76,00;0,00
06/10/2022 17:00;9,23;37,33;30,04;87,28;29,29;38;11;0,51;3,08;125,56;28,80;66,50;1007,60;34,00;0,00
06/10/2022 18:00;8,84;54,84;33,16;117,30;20,79;39;17;0,61;2,71;117,97;28,00;70,50;1007,90;3,00;0,00
06/10/2022 19:00;9,55;67,83;31,32;135,33;14,63;39;10;0,65;2,41;115,93;27,50;76,60;1008,50;0,00;0,00
06/10/2022 20:00;8,29;91,67;37,09;177,61;10,47;43;17;0,69;1,78;118,85;27,30;78,90;1009,10;0,00;0,00
06/10/2022 21:00;7,90;55,93;33,05;118,79;12,89;31;17;0,61;1,62;109,79;27,00;81,10;1009,50;0,00;0,00
06/10/2022 22:00;9,08;28,30;23,69;67,09;18,32;26;10;0,49;2,01;106,00;26,80;83,40;1009,90;0,00;0,00
06/10/2022 23:00;8,29;19,20;24,10;53,54;19,91;30;10;0,48;1,89;104,26;26,60;83,80;1009,80;0,00;0,00
07/10/2022 00:00;7,79;17,72;23,89;51,06;17,85;30;10;0,47;1,43;106,89;26,50;84,80;1009,10;0,00;0,00
07/10/2022 01:00;5,10;5,11;15,66;23,52;26,01;24;9;0,44;1,35;106,85;26,30;85,70;1008,50;0,00;0,00
07/10/2022 02:00;4,66;1,52;7,54;9,87;34,48;23;9;0,38;1,49;100,99;26,20;85,40;1008,00;0,00;0,00
07/10/2022 03:00;4,13;1,10;7,33;9,02;35,96;20;11;0,38;1,68;102,84;26,20;85,80;1007,70;0,00;0,00
07/10/2022 04:00;4,58;1,79;8,78;11,52;33,99;24;11;0,38;1,63;111,07;26,20;85,70;1007,80;0,00;0,00
07/10/2022 05:00;5,18;8,63;13,40;26,64;25,44;23;11;0,45;1,14;153,96;25,80;86,20;1008,30;0,00;0,00
07/10/2022 06:00;5,60;51,87;25,10;104,63;9,93;39;21;0,70;1,19;180,46;25,40;89,40;1008,80;14,00;0,00
07/10/2022 07:00;5,91;86,13;29,98;161,91;8,02;39;21;1,17;1,38;175,77;26,20;85,70;1009,30;99,00;0,00
07/10/2022 08:00;6,64;64,50;30,47;129,37;15,48;48;26;0,89;2,21;156,58;27,30;78,60;1010,20;300,00;0,00
07/10/2022 09:00;5,00;46,39;26,36;97,51;28,21;35;21;0,47;3,45;115,55;29,00;64,80;1010,40;684,00;0,00
07/10/2022 10:00;5,00;29,06;19,19;63,75;34,37;31;11;0,42;4,19;112,38;29,50;62,10;1010,60;812,00;0,00
07/10/2022 11:00;3,79;21,07;18,22;50,53;37,29;29;10;0,42;4,40;110,51;29,90;58,50;1010,20;966,00;0,00
07/10/2022 12:00;3,37;21,39;18,87;51,68;36,92;33;11;0,44;4,15;113,89;30,20;55,90;1009,60;960,00;0,00
07/10/2022 13:00;4,66;23,87;18,40;55,02;39,57;26;10;0,44;4,16;106,46;30,40;54,70;1008,80;916,00;0,00
07/10/2022 14:00;4,66;24,47;18,40;55,93;39,88;24;9;0,45;4,05;105,80;30,40;53,60;1007,70;853,00;0,00
07/10/2022 15:00;4,13;24,08;22,99;59,91;39,98;32;10;0,46;3,76;102,52;29,90;61,40;1007,60;438,00;0,00
07/10/2022 16:00;4,24;24,56;23,22;60,87;39,58;40;14;0,50;3,19;102,74;29,60;63,60;1007,20;115,00;0,00
07/10/2022 17:00;4,97;39,81;31,51;92,55;28,31;34;11;0,58;2,58;102,76;29,40;62,60;1006,80;34,00;0,00
07/10/2022 18:00;5,02;57,81;40,45;129,07;18,75;44;17;0,67;2,27;107,94;28,40;70,10;1007,20;3,00;0,00
07/10/2022 19:00;5,94;64,66;41,11;140,27;17,52;37;17;0,70;1,88;112,44;27,80;76,00;1007,80;0,00;0,00
07/10/2022 20:00;6,77;77,87;39,25;158,68;15,06;40;17;0,71;2,13;107,78;27,60;79,20;1008,20;0,00;0,00
07/10/2022 21:00;6,59;48,46;32,71;107,04;17,20;32;17;0,62;2,13;106,11;27,30;82,70;1008,70;0,00;0,00
07/10/2022 22:00;6,09;48,79;31,28;106,08;16,01;31;43;0,62;1,90;119,35;27,20;83,50;1008,80;0,00;0,00
07/10/2022 23:00;6,43;22,96;24,44;59,65;23,70;32;18;0,54;2,18;124,95;27,20;82,20;1008,70;0,00;0,00
08/10/2022 00:00;6,33;13,27;19,32;39,68;30,27;28;11;0,47;2,25;122,90;27,10;82,50;1008,20;0,00;0,00
08/10/2022 01:00;7,45;3,73;10,92;16,64;38,23;28;11;0,42;1,99;121,95;27,00;82,60;1007,50;0,00;0,00
08/10/2022 02:00;6,09;1,54;9,49;11,88;41,49;23;20;0,40;1,73;118,73;26,80;83,80;1006,90;0,00;0,00
08/10/2022 03:00;7,22;1,40;8,63;10,77;44,45;29;7;0,40;1,81;125,64;26,70;84,30;1006,40;0,00;0,00
08/10/2022 04:00;5,47;1,12;5,70;7,41;48,37;31;11;0,40;1,96;143,01;26,50;84,60;1006,80;0,00;0,00
08/10/2022 05:00;4,66;4,16;11,24;17,61;43,25;33;11;0,42;1,86;143,62;26,50;84,50;1006,90;0,00;0,00
08/10/2022 06:00;6,43;34,29;28,14;80,72;25,25;42;15;0,52;1,87;143,58;26,30;87,40;1007,60;7,00;0,00
08/10/2022 07:00;5,28;35,63;29,48;84,10;24,34;39;21;0,65;2,46;148,24;26,60;86,60;1008,10;163,00;0,00
08/10/2022 08:00;6,67;25,26;23,93;62,66;43,12;40;21;0,54;3,80;139,24;28,10;71,20;1009,20;450,00;0,00
08/10/2022 09:00;7,19;22,57;24,59;59,20;45,78;38;27;0,51;3,80;128,60;28,80;66,50;1009,80;447,00;0,00
08/10/2022 10:00;6,54;19,73;26,17;56,41;48,49;40;27;0,51;3,46;125,07;29,00;65,70;1009,60;507,00;0,00
08/10/2022 11:00;6,75;22,31;25,79;60,02;51,04;39;36;0,50;3,69;124,01;29,60;63,10;1009,00;711,00;0,00
08/10/2022 12:00;7,06;18,10;22,50;50,27;57,32;35;;0,47;4,23;107,93;29,70;60,50;1008,00;873,00;0,00
08/10/2022 13:00;6,96;17,15;22,07;48,39;56,65;34;;0,48;4,48;108,79;29,90;57,80;1006,90;888,00;0,00
08/10/2022 14:00;7,11;21,27;22,18;54,82;53,81;36;;0,43;4,83;101,29;29,80;56,40;1005,70;826,00;0,00
08/10/2022 15:00;6,38;22,56;25,87;60,46;47,67;32;;0,43;4,10;104,20;29,40;62,00;1005,80;372,00;0,00
08/10/2022 16:00;6,93;20,84;23,46;55,42;44,88;38;;0,48;3,41;102,96;29,20;65,50;1005,50;81,00;0,00
08/10/2022 17:00;7,58;22,67;25,15;59,93;42,78;37;;0,51;3,20;101,98;28,60;69,70;1005,70;38,00;0,00
08/10/2022 18:00;6,88;26,91;25,98;67,24;37,02;33;;0,53;3,65;103,35;27,90;75,50;1006,40;3,00;0,00
08/10/2022 19:00;7,43;27,13;28,50;70,10;34,99;36;;0,53;3,34;105,22;27,60;78,90;1007,00;0,00;0,00
08/10/2022 20:00;7,64;33,32;34,46;85,53;31,48;33;;0,56;2,81;107,63;27,60;79,10;1007,90;0,00;0,00
08/10/2022 21:00;8,13;24,03;26,00;62,82;30,52;36;;0,49;3,03;112,64;27,40;79,80;1008,20;0,00;0,00
08/10/2022 22:00;6,54;14,91;21,41;44,27;39,43;27;;0,45;3,20;111,72;27,50;80,00;1009,10;0,00;0,00
08/10/2022 23:00;7,27;9,02;18,89;32,71;45,86;32;;0,43;3,20;117,66;27,30;79,30;1009,10;0,00;0,00
09/10/2022 00:00;7,04;7,02;16,35;27,13;50,02;33;;0,38;2,87;118,89;27,20;78,50;1008,40;0,00;0,00
09/10/2022 01:00;3,82;3,11;10,47;15,25;54,34;26;;0,39;2,63;118,85;27,10;79,20;1007,40;0,00;0,00
09/10/2022 02:00;1,83;1,02;5,41;6,96;58,04;32;;0,38;2,96;121,50;26,90;79,80;1006,80;0,00;0,00
09/10/2022 03:00;1,70;0,74;3,95;5,08;59,46;30;;0,37;2,83;133,35;26,80;81,20;1006,50;0,00;0,00
09/10/2022 04:00;0,78;1,09;5,81;7,46;53,00;27;;0,41;2,51;153,11;25,90;88,90;1006,70;0,00;0,00
09/10/2022 05:00;2,38;7,26;11,96;23,08;42,92;29;;0,46;1,37;167,83;25,80;86,30;1007,20;0,00;0,00
09/10/2022 06:00;2,80;13,98;17,13;38,56;32,88;48;;0,57;1,57;173,74;25,60;87,40;1008,00;8,00;0,00
09/10/2022 07:00;1,52;15,66;16,81;40,81;37,03;31;;0,49;2,32;167,64;26,00;81,80;1008,90;153,00;0,00
09/10/2022 08:00;3,01;13,04;14,85;34,87;41,59;37;;0,46;2,78;158,55;27,50;73,70;1009,60;380,00;0,00
09/10/2022 09:00;2,48;11,19;15,25;32,43;45,39;35;;0,44;3,04;145,18;28,50;69,50;1010,20;498,00;0,00
09/10/2022 10:00;3,87;14,90;16,64;39,50;49,49;28;;0,41;3,40;119,83;29,30;64,30;1009,80;581,00;0,00
09/10/2022 11:00;4,16;15,86;19,46;43,78;51,90;37;;0,42;3,98;127,14;30,00;60,60;1009,20;827,00;0,00
09/10/2022 12:00;4,16;17,73;17,76;44,97;49,33;41;;0,42;4,07;119,51;30,20;61,00;1008,50;658,00;0,00
09/10/2022 13:00;3,40;14,90;15,90;38,74;48,92;33;;0,47;4,07;124,52;30,10;62,60;1007,80;600,00;0,00
09/10/2022 14:00;3,92;14,66;18,25;40,74;46,41;25;;0,47;3,79;135,84;30,10;63,00;1007,20;650,00;0,00
09/10/2022 15:00;3,61;12,60;15,72;35,04;43,37;25;;0,45;4,18;115,36;29,50;68,20;1007,10;254,00;0,00
09/10/2022 16:00;3,84;18,48;13,33;41,66;29,72;22;;0,47;3,70;120,75;28,20;77,60;1007,10;158,00;0,00
09/10/2022 17:00;3,84;17,99;14,44;42,01;27,05;20;;0,46;4,00;102,77;28,10;78,50;1007,00;66,00;0,00
09/10/2022 18:00;3,84;22,34;19,04;53,29;23,32;23;;0,50;2,98;106,86;27,70;78,60;1007,40;4,00;0,00
09/10/2022 19:00;4,52;20,45;17,61;48,97;21,64;26;;0,52;2,86;102,45;27,50;81,00;1008,00;0,00;0,00
09/10/2022 20:00;4,37;17,09;18,10;44,31;24,28;27;;0,52;3,19;103,60;27,60;82,00;1008,80;0,00;0,00
09/10/2022 21:00;4,05;12,41;18,52;37,56;28,13;29;;0,48;3,22;102,67;27,60;81,10;1009,70;0,00;0,00
09/10/2022 22:00;3,74;11,36;16,54;33,97;33,21;33;;0,47;3,26;105,82;27,40;81,00;1010,10;0,00;0,00
09/10/2022 23:00;3,98;10,74;16,96;33,42;39,11;36;;0,44;3,11;113,66;27,20;80,60;1010,00;0,00;0,00
10/10/2022 00:00;2,93;7,79;11,97;23,93;44,31;38;;0,41;3,67;111,53;27,10;81,00;1009,60;0,00;0,00
10/10/2022 01:00;1,94;2,61;8,40;12,41;48,75;34;;0,35;3,44;118,85;26,90;81,30;1009,00;0,00;0,00
10/10/2022 02:00;0,73;0,94;4,79;6,22;50,51;28;;0,34;2,76;121,39;26,80;81,60;1008,50;0,00;0,00
10/10/2022 03:00;1,28;0,99;5,36;6,90;52,96;31;;0,34;2,99;113,04;26,70;80,40;1008,30;0,00;0,00
10/10/2022 04:00;1,41;1,15;5,36;7,11;50,67;27;;0,34;2,65;115,63;26,80;81,00;1008,30;0,00;0,00
10/10/2022 05:00;1,05;6,76;10,55;20,92;42,51;25;;0,36;2,19;119,06;26,50;85,00;1009,00;0,00;0,30
10/10/2022 06:00;2,56;67,86;36,53;140,52;20,13;33;;0,45;2,04;120,79;26,30;86,20;1009,50;14,00;0,00
10/10/2022 07:00;4,13;88,87;38,57;174,92;18,73;42;;0,53;2,87;114,92;27,20;79,60;1010,20;170,00;0,00
10/10/2022 08:00;4,60;55,34;31,17;116,02;28,36;45;;0,53;3,44;123,51;28,10;72,90;1011,00;322,00;0,00
10/10/2022 09:00;4,26;42,17;26,60;91,29;33,66;42;;0,46;4,10;120,75;28,70;69,30;1011,50;498,00;0,00
10/10/2022 10:00;4,45;29,03;23,54;68,07;39,29;36;;0,40;4,37;113,99;29,30;64,70;1011,70;762,00;0,00
10/10/2022 11:00;2,62;19,55;19,14;49,14;44,98;32;;0,38;4,42;109,59;29,80;61,20;1011,40;878,00;0,00
10/10/2022 12:00;;23,50;19,83;55,85;42,04;29;;0,39;4,08;118,43;30,40;58,70;1010,80;924,00;0,00
10/10/2022 13:00;;24,56;19,53;57,19;43,41;28;;0,38;4,44;118,67;30,50;57,20;1010,20;902,00;0,00
10/10/2022 14:00;;26,95;22,58;63,90;39,29;29;;0,39;3,97;109,89;30,50;58,90;1009,30;834,00;0,00
10/10/2022 15:00;4,52;26,11;20,10;60,12;36,31;32;;0,41;4,04;104,89;30,00;63,20;1008,80;368,00;0,00
10/10/2022 16:00;9,62;23,39;20,42;56,26;36,74;30;;0,41;4,04;101,89;29,60;60,60;1008,10;76,00;0,00
10/10/2022 17:00;7,32;35,79;27,50;82,39;29,40;33;;0,46;3,77;99,99;28,70;66,40;1007,80;36,00;0,00
10/10/2022 18:00;6,80;37,72;28,10;85,95;26,36;48;;0,51;3,62;101,50;27,90;72,20;1008,40;3,00;0,00
10/10/2022 19:00;8,21;54,91;28,52;112,72;17,91;51;;0,60;2,66;113,61;27,60;77,30;1009,20;0,00;0,00